Milan, NH

8:05 PM EST on February 19, 2017 (GMT -0500)
Berlin Municipal

Weather History for KBML - April, 2014

Change the Weather History Date:

Saturday, April 5, 2014

  Actual Average Record
Temperature  
Mean Temperature 37 °F -  
Max Temperature 43 °F 41 °F 55 °F (1997)
Min Temperature 32 °F 20 °F 3 °F (2016)
Degree Days  
Heating Degree Days 28    
Moisture  
Dew Point 30 °F    
Average Humidity 78    
Maximum Humidity 89    
Minimum Humidity 62    
Precipitation  
Precipitation 0.08 in - - ()
Sea Level Pressure  
Sea Level Pressure 29.73 in    
Wind  
Wind Speed 8 mph (WNW)    
Max Wind Speed 13 mph    
Max Gust Speed 30 mph    
Visibility 8 miles    
Events Rain , Snow    
Averages and records for this station are not official NWS values.
T = Trace of Precipitation, MM = Missing Value Source: NWS Daily Summary

Daily Weather History Graph

Daily Weather History Graph

Search for Another Location

Airport or City:

Trip Planner

Search our weather history database for the weather conditions in past years. The results will help you decide how hot, cold, wet, or windy it might be!

Date:

Astronomy

Apr. 05, 2014 Rise Set
Actual Time 6:18 AM EDT 7:17 PM EDT
Civil Twilight 5:48 AM EDT 7:46 PM EDT
Nautical Twilight 5:13 AM EDT 8:22 PM EDT
Astronomical Twilight 4:36 AM EDT 8:59 PM EDT
Moon 10:15 AM EDT (4/5) 12:32 AM EDT (4/5)
Length of Visible Light 13h 58m
Length of Day
12h 58m
Waxing Crescent, 34% of the Moon is Illuminated
Apr 5
Waxing Crescent
Apr 7
First Quarter
Apr 15
Full
Apr 22
Last Quarter
Apr 29
New

Hourly Weather History & Observations

Time (EDT) Temp. Windchill Dew Point Humidity Pressure Visibility Wind Dir Wind Speed Gust Speed Precip Events Conditions
12:52 AM 34.0 °F 25.0 °F 28.9 °F 82% 29.87 in 6.0 mi SSE 12.7 mph - 0.03 in   Overcast
1:52 AM 34.0 °F 26.0 °F 28.9 °F 82% 29.86 in 10.0 mi SSE 10.4 mph 21.9 mph 0.00 in   Overcast
2:52 AM 35.1 °F 27.4 °F 30.0 °F 82% 29.81 in 10.0 mi South 10.4 mph - 0.00 in   Overcast
3:52 AM 35.1 °F 26.9 °F 30.0 °F 82% 29.79 in 5.0 mi SSE 11.5 mph - 0.01 in Rain Light Rain
4:52 AM 35.1 °F 27.4 °F 30.0 °F 82% 29.77 in 6.0 mi SE 10.4 mph 23.0 mph 0.02 in Snow Light Snow
5:52 AM 35.1 °F 27.9 °F 30.9 °F 85% 29.75 in 10.0 mi SSE 9.2 mph - 0.00 in   Overcast
6:52 AM 36.0 °F - 32.0 °F 86% 29.74 in 10.0 mi Calm Calm - 0.00 in   Overcast
7:15 AM 35.1 °F 32.2 °F 32.0 °F 89% 29.69 in 10.0 mi North 3.5 mph - N/A   Overcast
7:45 AM 35.1 °F 32.2 °F 32.0 °F 89% 29.68 in 10.0 mi NNW 3.5 mph - N/A   Overcast
7:52 AM 35.1 °F 32.2 °F 32.0 °F 89% 29.71 in 10.0 mi NNW 3.5 mph - N/A   Overcast
8:52 AM 35.1 °F 30.1 °F 32.0 °F 89% 29.70 in 10.0 mi NNW 5.8 mph - N/A   Overcast
9:22 AM 36.0 °F 32.1 °F 33.1 °F 89% 29.66 in 10.0 mi NNW 4.6 mph - N/A   Overcast
9:52 AM 36.0 °F 32.1 °F 33.1 °F 89% 29.70 in 10.0 mi NNW 4.6 mph - N/A   Overcast
10:14 AM 36.0 °F 33.3 °F 33.1 °F 89% 29.66 in 8.0 mi NW 3.5 mph - N/A   Overcast
10:52 AM 37.0 °F 34.5 °F 34.0 °F 89% 29.69 in 10.0 mi NNW 3.5 mph - N/A   Overcast
11:52 AM 42.1 °F 40.2 °F 35.1 °F 76% 29.66 in 10.0 mi North 3.5 mph - N/A   Overcast
12:17 PM 42.1 °F 38.4 °F 35.1 °F 76% 29.63 in 10.0 mi NNW 5.8 mph - N/A   Overcast
12:52 PM 42.1 °F 37.7 °F 34.0 °F 73% 29.66 in 10.0 mi NW 6.9 mph - N/A   Overcast
1:52 PM 39.9 °F 35.8 °F 35.1 °F 83% 29.66 in 5.0 mi NW 5.8 mph - 0.01 in Rain Light Rain
2:15 PM 39.9 °F 36.7 °F 35.1 °F 83% 29.62 in 10.0 mi Variable 4.6 mph - 0.00 in   Overcast
2:52 PM 39.9 °F 37.8 °F 34.0 °F 79% 29.65 in 10.0 mi Variable 3.5 mph - 0.00 in   Overcast
3:26 PM 37.9 °F 32.1 °F 33.1 °F 83% 29.63 in 2.5 mi West 8.1 mph 20.7 mph 0.01 in Rain Rain
3:35 PM 37.9 °F 33.5 °F 33.1 °F 83% 29.63 in 7.0 mi West 5.8 mph - 0.01 in Rain Light Rain
3:52 PM 39.0 °F 33.4 °F 33.1 °F 79% 29.67 in 10.0 mi WNW 8.1 mph - 0.01 in   Overcast
4:52 PM 39.0 °F 34.8 °F 28.0 °F 65% 29.68 in 10.0 mi Variable 5.8 mph - 0.00 in   Overcast
5:52 PM 39.0 °F 32.8 °F 27.0 °F 62% 29.70 in 10.0 mi West 9.2 mph - N/A   Overcast
6:52 PM 37.0 °F 31.0 °F 25.0 °F 62% 29.73 in 10.0 mi West 8.1 mph 19.6 mph 0.00 in   Overcast
7:52 PM 35.1 °F 27.9 °F 25.0 °F 67% 29.77 in 9.0 mi West 9.2 mph - 0.00 in Snow Light Snow
8:52 PM 34.0 °F 25.5 °F 24.1 °F 67% 29.80 in 9.0 mi West 11.5 mph 26.5 mph 0.00 in Snow Light Snow
9:49 PM 33.8 °F 25.3 °F 23.0 °F 65% 29.77 in 9.0 mi West 11.5 mph 21.9 mph 0.00 in   Overcast
9:52 PM 33.1 °F 23.9 °F 24.1 °F 70% 29.81 in 10.0 mi West 12.7 mph 23.0 mph 0.00 in   Overcast
10:20 PM 33.1 °F 24.9 °F 24.1 °F 70% 29.78 in 5.0 mi West 10.4 mph 23.0 mph 0.00 in Snow Light Snow
10:52 PM 32.0 °F 24.2 °F 24.1 °F 73% 29.82 in 3.0 mi West 9.2 mph 28.8 mph 0.00 in Snow Light Snow
11:24 PM 32.0 °F 23.0 °F 24.1 °F 73% 29.80 in 4.0 mi West 11.5 mph 23.0 mph 0.00 in Snow Light Snow
11:37 PM 33.1 °F 23.9 °F 23.0 °F 66% 29.80 in 5.0 mi West 12.7 mph 25.3 mph 0.00 in Snow Light Snow
11:52 PM 33.1 °F 25.5 °F 21.9 °F 64% 29.84 in 6.0 mi WNW 9.2 mph 29.9 mph 0.00 in Snow Light Snow